Weather in Vossiyatskoe

Ukraine / Mykolaiv District     47°39′28″N   32°06′38″E
temp.,
°C
wind,
m/s
gust,
m/s
humid.,
%
clouds,
%
prec.,
mm/h
press.,
hPa
HPBL,
m
17 may, tue
tue1700:00+13wnw225934 0.0 101726
03:00+12w3464100 0.0 101787
06:00+12n3472100 0.0 1016111
09:00+15nne445699 0.0 1017530
12:00+19nnw343729 0.0 10161967
15:00+20nw463332 0.0 10142485
18:00+20wnw4738100 0.0 10132411
21:00+16nw2249100 0.0 101222
18 may, wed
wed1800:00+13ne2362100 0.0 101250
03:00+12n6957100 0.0 1012496
06:00+9n61161100 0.3 1012517
09:00+11n8105299 0.3 10141115
12:00+13nnw894399 0.0 10142419
15:00+12nnw10115793 0.9 10161764
18:00+8nnw81076100 0.2 10181012
21:00+9n81388100 3.4 10191308
19 may, thu
thu1900:00+8nnw715876 0.1 1021605
03:00+7nnw715885 0.1 1022416
06:00+7nnw614885 0.0 1023374
09:00+12n810634 0.0 1025839
12:00+16n78455 0.0 10251700
15:00+19n784131 0.0 10242252
18:00+19nnw674311 0.0 10242142
21:00+13nw446620 0.0 102553
20 may, fri
fri2000:00+12nw33705 0.0 102641
03:00+10nw46765 0.0 102678
06:00+10wnw35795 0.0 102693
09:00+17wnw455434 0.0 1026539
12:00+20w4540100 0.0 10251521
15:00+23w5634100 0.0 10231918
18:00+22w4639100 0.0 10211807
21:00+16sw4659100 0.0 102076
21 may, sat
sat2100:00+15sw5116566 0.0 1019266
03:00+12sw4127847 0.0 1017239
06:00+12sw51277100 0.0 1016269
09:00+19sw79585 0.0 1014567
12:00+24sw7941100 0.0 10121149
15:00+26wsw793392 0.0 10101805
18:00+26wsw69397 0.0 10092061
21:00+18ssw586899 0.0 1009138